Location: Curupao
(10.4996°N, 66.6442°W)
Time: 02:04:07
(UTC+00:00)

ASTRO E2 - Pass Details

Date: 23 May 2024
Orbit: 426 x 431 km, 31.4° (Epoch: 12 June)

Event Time Altitude Azimuth Distance (km) Brightness Sun altitude
Exits shadow 09:28:10 10° 221° (SW) 1,529 4.5 -8.9°
Reaches altitude 10° 09:28:14 10° 220° (SW) 1,502 4.5 -8.9°
Maximum altitude 09:31:31 43° 147° (SSE) 598 3.1 -8.2°
Drops below altitude 10° 09:34:48 10° 74° (ENE) 1,501 6.8 -7.4°
Sets 09:36:59 0° 67° (ENE) 2,366 8.9 -6.9°
